TimeEDT,TemperatureF,Dew PointF,Humidity,Sea Level PressureIn,VisibilityMPH,Wind Direction,Wind SpeedMPH,Gust SpeedMPH,PrecipitationIn,Events,Conditions,WindDirDegrees,DateUTC
12:25 AM,30.6,26.2,84,30.23,-9999.0,Calm,Calm,-,N/A,,Unknown,0,2012-10-14 04:25:00
1:25 AM,31.1,27.0,85,30.25,-9999.0,Calm,Calm,-,N/A,,Unknown,0,2012-10-14 05:25:00
2:25 AM,32.2,27.7,83,30.23,-9999.0,Calm,Calm,-,N/A,,Unknown,0,2012-10-14 06:25:00
3:25 AM,34.9,31.6,88,30.23,-9999.0,SSW,6.9,17.3,N/A,,Unknown,200,2012-10-14 07:25:00
4:25 AM,33.4,-9999,N/A,30.21,-9999.0,Variable,5.8,-,N/A,,Unknown,0,2012-10-14 08:25:00
5:25 AM,32.7,-9999,N/A,30.20,-9999.0,Calm,Calm,-,0.01,,Unknown,0,2012-10-14 09:25:00
6:25 AM,32.7,-9999,N/A,30.16,-9999.0,Calm,Calm,-,0.02,,Unknown,0,2012-10-14 10:25:00
7:25 AM,33.3,-9999,N/A,30.15,-9999.0,Calm,Calm,-,0.02,,Unknown,0,2012-10-14 11:25:00
8:25 AM,33.3,-9999,N/A,30.16,-9999.0,Calm,Calm,-,0.03,,Unknown,0,2012-10-14 12:25:00
9:25 AM,34.5,-9999,N/A,30.12,-9999.0,Variable,4.6,-,0.01,,Unknown,0,2012-10-14 13:25:00
10:25 AM,35.4,-9999,N/A,30.13,-9999.0,Variable,3.5,-,N/A,,Unknown,0,2012-10-14 14:25:00
11:25 AM,36.3,-9999,N/A,30.12,-9999.0,Variable,4.6,-,N/A,,Unknown,0,2012-10-14 15:25:00
12:25 PM,37.4,-9999,N/A,30.10,-9999.0,Variable,4.6,-,N/A,,Unknown,0,2012-10-14 16:25:00
1:26 PM,38.5,39.2,100,30.08,-9999.0,Variable,3.5,-,N/A,,Unknown,0,2012-10-14 17:26:00
2:25 PM,38.8,35.8,89,30.07,-9999.0,Variable,3.5,-,N/A,,Unknown,0,2012-10-14 18:25:00
3:29 PM,38.8,39.6,100,30.05,-9999.0,Calm,Calm,-,N/A,,Unknown,0,2012-10-14 19:29:00
4:25 PM,39.6,38.8,97,30.04,-9999.0,Calm,Calm,-,0.19,,Unknown,0,2012-10-14 20:25:00
5:27 PM,39.4,-9999,N/A,30.03,-9999.0,Calm,Calm,-,N/A,,Unknown,0,2012-10-14 21:27:00
6:25 PM,38.7,-9999,N/A,30.03,-9999.0,Calm,Calm,-,N/A,,Unknown,0,2012-10-14 22:25:00
7:25 PM,38.3,-9999,N/A,30.02,-9999.0,Calm,Calm,-,N/A,,Unknown,0,2012-10-14 23:25:00
8:27 PM,38.3,-9999,N/A,30.00,-9999.0,Variable,2.3,-,0.01,,Unknown,0,2012-10-15 00:27:00
9:25 PM,37.8,-9999,N/A,29.99,-9999.0,Variable,5.8,-,0.02,,Unknown,0,2012-10-15 01:25:00
10:25 PM,37.6,-9999,N/A,29.97,-9999.0,Variable,3.5,-,0.06,,Unknown,0,2012-10-15 02:25:00
11:25 PM,37.6,-9999,N/A,29.95,-9999.0,Variable,4.6,-,0.07,,Unknown,0,2012-10-15 03:25:00